Regional Weather Roundup
Issued by NWS

Home | Current Version | Previous Version | Graphics & Text | Print | Product List | Glossary On
Versions: 1 2 3 4 5 6 7 8 9 10 11 12 13 14 15 16 17 18 19 20 21 22 23 24 25 26 27 28 29 30 31 32 33 34 35 36 37 38 39 40 41 42 43 44 45 46 47 48 49 50
065
ASUS43 KLSX 240910
RWRMO

WEATHER SUMMARY FOR MISSOURI
NATIONAL WEATHER SERVICE SPRINGFIELD MO
400 AM CDT SUN JUL 24 2016

NOTE: "FAIR" INDICATES FEW OR NO CLOUDS BELOW 12,000 FEET WITH NO
       SIGNIFICANT WEATHER AND/OR OBSTRUCTIONS TO VISIBILITY.
       CURRENT SKY AND/OR WEATHER CONDITIONS ARE NOT AVAILABLE FOR
       CHILLICOTHE AND FARMINGTON.

MOZ001>031-035>038-043-044-053-054-241000-
...NORTHERN AND WESTERN MISSOURI...

CITY           SKY/WX    TMP DP  RH WIND       PRES   REMARKS
KANSAS CTY INT PTCLDY    78  71  79 S8        29.87S
KANSAS C DTWN  CLEAR     84  71  65 S8        29.86R
LEE`S SUMMIT   CLEAR     82  73  74 S8        29.89S
ST JOSEPH      PTCLDY    81  71  71 S8        29.84F
CHILLICOTHE      N/A     78  74  87 CALM      29.88R
KIRKSVILLE     CLEAR     77  74  90 S5        29.90S

$$
MOZ066>068-077>081-088>096-101>105-241000-
...SOUTHWEST MISSOURI...

CITY           SKY/WX    TMP DP  RH WIND       PRES   REMARKS
SPRINGFIELD    CLEAR     78  72  81 SE7       29.95S
JOPLIN         PTCLDY    80  72  76 S8        29.92S
BRANSON        PTCLDY    75  72  88 CALM      29.97F

$$
MOZ032>034-039>042-045>050-055>058-069>072-241000-
...CENTRAL MISSOURI...

CITY           SKY/WX    TMP DP  RH WIND       PRES   REMARKS
COLUMBIA       CLEAR     78  75  90 S8        29.92F
JEFFERSON CITY CLEAR     80  75  84 SE3       29.91S
ROLLA          CLEAR     76  72  87 S9        29.94S
SEDALIA        CLOUDY    80  75  84 S8        29.92R
WHITEMAN AFB   MOCLDY    80  80  99 S7        29.89R HX  90
OSAGE BEACH    CLEAR     77  72  84 SE5       29.94S

$$
MOZ051-052-059>065-241000-
...EAST CENTRAL MISSOURI...

CITY           SKY/WX    TMP DP  RH WIND       PRES   REMARKS
ST LOUIS INTL  CLEAR     83  74  74 S6        29.93S
SPIRIT OF STL  CLEAR     78  76  93 CALM      29.91S
ST CHARLES     CLEAR     77  77 100 E6        29.91S

$$
MOZ072>076-082>087-097>100-106>115-241000-
...SOUTH CENTRAL AND SOUTHEAST MISSOURI...

CITY           SKY/WX    TMP DP  RH WIND       PRES   REMARKS
CAPE GIRARDEAU PTCLDY    76  74  93 CALM      29.93S
FARMINGTON     CLEAR     73  72  96 CALM      29.96F FOG
POPLAR BLUFF   CLEAR     77  75  93 CALM      29.92F
WEST PLAINS    PTCLDY    74  69  85 CALM      29.98S

$$




USA.gov is the U.S. government's official web portal to all federal, state and local government web resources and services.